Location: Unspecified
(47.6577°N, 23.5639°E)
Time: 10:12:11
(UTC+02:00)

ISS - Pass Details

Date: 06 February 2017
Orbit: 399 x 409 km, 51.6° (Epoch: 24 March)

Event Time Altitude Azimuth Distance (km) Brightness Sun altitude
Rises 18:44:12 0° 275° (W) 2,330 1.7 -12.0°
Reaches altitude 10° 18:46:22 10° 283° (WNW) 1,467 0.2 -12.4°
Maximum altitude 18:49:30 40° 355° (N) 614 -3.0 -12.9°
Enters shadow 18:51:11 22° 53° (NE) 946 -2.5 -13.2°
